Regional Weather Roundup
Issued by NWS

Home | Current Version | Previous Version | Graphics & Text | Print | Product List | Glossary On
Versions: 1 2 3 4 5 6 7 8 9 10 11 12 13 14 15 16 17 18 19 20 21 22 23 24 25 26 27 28 29 30 31 32 33 34 35 36 37 38 39 40 41 42 43 44 45 46 47 48 49 50
000
ASUS43 KBIS 270520
RWRND

NORTH DAKOTA REGIONAL WEATHER ROUNDUP
NATIONAL WEATHER SERVICE BISMARCK ND
1100 PM CST WED NOV 26 2014

NOTE: "FAIR" INDICATES FEW OR NO CLOUDS BELOW 12,000 FEET WITH NO
SIGNIFICANT WEATHER AND/OR OBSTRUCTIONS TO VISIBILITY.


NDZ001>003-009>011-017-270600-
NORTHWEST NORTH DAKOTA

CITY           SKY/WX    TMP DP  RH WIND       PRES   REMARKS
WILLISTON      CLOUDY    10   5  80 SE7       30.36F WCI  -1
MINOT          CLOUDY   -15 -20  78 SW5       30.43F WCI -27
MINOT AFB      CLOUDY   -26 -30  81 SW3       30.44F
$$

NDZ018>021-031>035-040>046-270600-
SOUTHWEST NORTH DAKOTA

CITY           SKY/WX    TMP DP  RH WIND       PRES   REMARKS
BISMARCK       PTCLDY    -7 -12  79 NE5       30.47S WCI -18
DICKINSON      PTCLDY    10   7  85 SE8       30.30F WCI  -1
GARRISON         N/A     -2  -6  83 E6        30.42S WCI -14
HETTINGER ARPT CLOUDY    10   7  87 E8        30.33F WCI  -2
$$

NDZ004>008-012>016-024-026-027-054-270600-
NORTHEAST NORTH DAKOTA

CITY           SKY/WX    TMP DP  RH WIND       PRES   REMARKS
GRAND FORKS    PTCLDY   -12 -17  78 N3        30.55S
GRND FRKS AFB  PTCLDY   -13 -19  77 W3        30.55R
DEVILS LAKE    PTCLDY    -9 -20  59 CALM      30.45F
$$

NDZ022-023-025-028>030-036>039-047>053-270600-
SOUTHEAST NORTH DAKOTA

CITY           SKY/WX    TMP DP  RH WIND       PRES   REMARKS
FARGO          PTCLDY    -9 -16  71 W7        30.55R WCI -24
JAMESTOWN      MOCLDY   -16 -22  74 W6        30.48S WCI -31
$$



USA.gov is the U.S. government's official web portal to all federal, state and local government web resources and services.